START_TIME,STEP,MOV.,P11,t_acc.,P23,t_acc.,P27,t_acc.,A4,t_acc.
1979-07-18 12:00:23.020 ,0,0,0.,4.8,0.,4.8,0.,4.8,0.,4.8
1979-07-18 12:00:27.820 ,0,0,0.,4.8,0.,4.8,0.,4.8,0.,4.8
1979-07-18 12:00:32.620 ,0,0,2.,4.8,0.,4.8,0.,4.8,0.,4.8
1979-07-18 12:00:37.420 ,0,0,0.,4.8,0.,4.8,0.,4.8,1.,4.8
1979-07-18 12:00:42.220 ,0,0,1.,4.8,0.,4.8,0.,4.8,0.,4.8
1979-07-18 12:00:47.020 ,1,0,0.,4.8,0.,4.8,0.,4.8,0.,4.8
1979-07-18 12:00:51.820 ,1,0,1.,4.8,0.,4.8,0.,4.8,0.,4.8
1979-07-18 12:00:56.620 ,1,0,0.,4.8,0.,4.8,0.,4.8,0.,4.8
1979-07-18 12:01:01.420 ,1,0,0.,4.8,0.,4.8,0.,4.8,0.,4.8
1979-07-18 12:01:06.220 ,1,0,0.,4.8,0.,4.8,0.,4.8,0.,4.8
1979-07-18 12:01:11.020 ,1,0,0.,4.8,0.,4.8,0.,4.8,0.,4.8
1979-07-18 12:01:15.820 ,1,0,1.,4.8,0.,4.8,0.,4.8,0.,4.8
1979-07-18 12:01:20.620 ,1,0,0.,4.8,0.,4.8,0.,4.8,0.,4.8
1979-07-18 12:01:25.420 ,1,0,0.,4.8,0.,4.8,0.,4.8,0.,4.8
1979-07-18 12:01:30.220 ,1,0,0.,4.8,0.,4.8,0.,4.8,0.,4.8
1979-07-18 12:01:35.020 ,2,0,0.,4.8,0.,4.8,0.,4.8,0.,4.8
1979-07-18 12:01:39.820 ,2,0,0.,4.8,0.,4.8,0.,4.8,0.,4.8
1979-07-18 12:01:44.620 ,2,0,0.,4.8,0.,4.8,0.,4.8,0.,4.8
1979-07-18 12:01:49.420 ,2,0,0.,4.8,0.,4.8,0.,4.8,0.,4.8
1979-07-18 12:01:54.220 ,2,0,0.,4.8,0.,4.8,0.,4.8,0.,4.8
1979-07-18 12:01:59.020 ,2,0,0.,4.8,0.,4.8,0.,4.8,0.,4.8
1979-07-18 12:02:03.820 ,2,0,0.,4.8,0.,4.8,0.,4.8,0.,4.8
1979-07-18 12:02:08.620 ,2,0,0.,4.8,0.,4.8,0.,4.8,0.,4.8
1979-07-18 12:02:13.420 ,2,0,0.,4.8,0.,4.8,0.,4.8,0.,4.8
1979-07-18 12:02:18.220 ,2,0,1.,4.8,0.,4.8,0.,4.8,0.,4.8
1979-07-18 12:02:23.020 ,3,0,2.,4.8,0.,4.8,0.,4.8,0.,4.8
1979-07-18 12:02:27.820 ,3,0,0.,4.8,0.,4.8,0.,4.8,0.,4.8
1979-07-18 12:02:32.620 ,3,0,0.,4.8,0.,4.8,0.,4.8,0.,4.8
1979-07-18 12:02:37.420 ,3,0,0.,4.8,0.,4.8,0.,4.8,0.,4.8
1979-07-18 12:02:42.220 ,3,0,0.,4.8,0.,4.8,0.,4.8,0.,4.8
1979-07-18 12:02:47.020 ,3,0,0.,4.8,0.,4.8,0.,4.8,0.,4.8
1979-07-18 12:02:51.820 ,3,0,0.,4.8,0.,4.8,0.,4.8,0.,4.8
1979-07-18 12:02:56.620 ,3,0,0.,4.8,0.,4.8,0.,4.8,0.,4.8
1979-07-18 12:03:01.420 ,3,0,0.,4.8,0.,4.8,0.,4.8,0.,4.8
1979-07-18 12:03:06.220 ,3,0,1.,4.8,0.,4.8,0.,4.8,0.,4.8
1979-07-18 12:03:11.020 ,4,0,2.,4.8,0.,4.8,0.,4.8,0.,4.8
1979-07-18 12:03:15.820 ,4,0,0.,4.8,0.,4.8,0.,4.8,0.,4.8
1979-07-18 12:03:20.620 ,4,0,0.,4.8,0.,4.8,0.,4.8,0.,4.8
1979-07-18 12:03:25.420 ,4,0,0.,4.8,0.,4.8,0.,4.8,1.,4.8
1979-07-18 12:03:30.220 ,4,0,0.,4.8,0.,4.8,0.,4.8,0.,4.8
1979-07-18 12:03:35.020 ,4,0,2.,4.8,0.,4.8,0.,4.8,0.,4.8
1979-07-18 12:03:39.820 ,4,0,0.,4.8,0.,4.8,0.,4.8,0.,4.8
1979-07-18 12:03:44.620 ,4,0,0.,4.8,0.,4.8,0.,4.8,0.,4.8
1979-07-18 12:03:49.420 ,4,0,0.,4.8,0.,4.8,0.,4.8,0.,4.8
1979-07-18 12:03:54.220 ,4,0,1.,4.8,0.,4.8,0.,4.8,0.,4.8
1979-07-18 12:03:59.020 ,5,0,0.,4.8,0.,4.8,0.,4.8,0.,4.8
1979-07-18 12:04:03.820 ,5,0,0.,4.8,0.,4.8,0.,4.8,0.,4.8
1979-07-18 12:04:08.620 ,5,0,0.,4.8,0.,4.8,0.,4.8,0.,4.8
1979-07-18 12:04:13.420 ,5,0,1.,4.8,0.,4.8,0.,4.8,0.,4.8
1979-07-18 12:04:18.220 ,5,0,1.,4.8,0.,4.8,0.,4.8,0.,4.8
1979-07-18 12:04:23.020 ,5,0,0.,4.8,0.,4.8,0.,4.8,0.,4.8
1979-07-18 12:04:27.820 ,5,0,1.,4.8,0.,4.8,0.,4.8,0.,4.8
1979-07-18 12:04:32.620 ,5,0,1.,4.8,0.,4.8,0.,4.8,0.,4.8
1979-07-18 12:04:37.420 ,5,0,0.,4.8,0.,4.8,0.,4.8,0.,4.8
1979-07-18 12:04:42.220 ,5,0,0.,4.8,0.,4.8,0.,4.8,1.,4.8
1979-07-18 12:04:47.020 ,6,0,1.,4.8,0.,4.8,0.,4.8,0.,4.8
1979-07-18 12:04:51.820 ,6,0,3.,4.8,0.,4.8,0.,4.8,0.,4.8
1979-07-18 12:04:56.620 ,6,0,0.,4.8,0.,4.8,0.,4.8,0.,4.8
1979-07-18 12:05:01.420 ,6,0,0.,4.8,0.,4.8,0.,4.8,0.,4.8
1979-07-18 12:05:06.220 ,6,0,0.,4.8,0.,4.8,0.,4.8,0.,4.8
1979-07-18 12:05:11.020 ,6,0,0.,4.8,0.,4.8,0.,4.8,0.,4.8
1979-07-18 12:05:15.820 ,6,0,0.,4.8,0.,4.8,0.,4.8,0.,4.8
1979-07-18 12:05:20.620 ,6,0,0.,4.8,0.,4.8,0.,4.8,0.,4.8
1979-07-18 12:05:25.420 ,6,0,0.,4.8,0.,4.8,0.,4.8,0.,4.8
1979-07-18 12:05:30.220 ,6,0,0.,4.8,0.,4.8,0.,4.8,0.,4.8
1979-07-18 12:05:35.020 ,7,0,1.,4.8,0.,4.8,0.,4.8,0.,4.8
1979-07-18 12:05:39.820 ,7,0,0.,4.8,0.,4.8,0.,4.8,0.,4.8
1979-07-18 12:05:44.620 ,7,0,0.,4.8,0.,4.8,0.,4.8,0.,4.8
1979-07-18 12:05:49.420 ,7,0,3.,4.8,0.,4.8,0.,4.8,0.,4.8
1979-07-18 12:05:54.220 ,7,0,0.,4.8,0.,4.8,0.,4.8,0.,4.8
1979-07-18 12:05:59.020 ,7,0,0.,4.8,0.,4.8,0.,4.8,0.,4.8
1979-07-18 12:06:03.820 ,7,0,0.,4.8,0.,4.8,0.,4.8,0.,4.8
1979-07-18 12:06:08.620 ,7,0,0.,4.8,0.,4.8,0.,4.8,0.,4.8
1979-07-18 12:06:13.420 ,7,0,0.,4.8,0.,4.8,0.,4.8,0.,4.8
1979-07-18 12:06:18.220 ,7,0,0.,4.8,0.,4.8,0.,4.8,0.,4.8
1979-07-18 12:06:23.020 ,7,0,0.,4.8,0.,4.8,0.,4.8,0.,4.8
1979-07-18 12:06:27.820 ,7,0,0.,4.8,0.,4.8,0.,4.8,0.,4.8
1979-07-18 12:06:32.620 ,7,0,0.,4.8,0.,4.8,0.,4.8,0.,4.8
1979-07-18 12:06:37.420 ,7,0,1.,4.8,0.,4.8,0.,4.8,0.,4.8
1979-07-18 12:06:42.220 ,7,0,0.,4.8,0.,4.8,0.,4.8,0.,4.8
1979-07-18 12:06:47.020 ,7,0,0.,4.8,0.,4.8,0.,4.8,0.,4.8
1979-07-18 12:06:51.820 ,7,0,0.,4.8,0.,4.8,0.,4.8,0.,4.8
1979-07-18 12:06:56.620 ,7,0,0.,4.8,0.,4.8,0.,4.8,0.,4.8
1979-07-18 12:07:01.420 ,7,0,0.,4.8,0.,4.8,0.,4.8,0.,4.8
1979-07-18 12:07:06.220 ,7,0,0.,4.8,0.,4.8,0.,4.8,0.,4.8
1979-07-18 12:07:11.020 ,6,0,0.,4.8,0.,4.8,0.,4.8,0.,4.8
1979-07-18 12:07:15.820 ,6,0,0.,4.8,0.,4.8,0.,4.8,0.,4.8
1979-07-18 12:07:20.620 ,6,0,0.,4.8,0.,4.8,0.,4.8,0.,4.8
1979-07-18 12:07:25.420 ,6,0,0.,4.8,0.,4.8,0.,4.8,0.,4.8
1979-07-18 12:07:30.220 ,6,0,0.,4.8,0.,4.8,0.,4.8,0.,4.8
1979-07-18 12:07:35.020 ,6,0,,0,,0,,0,,0
1979-07-18 12:07:39.820 ,6,0,0.,4.8,0.,4.8,0.,4.8,0.,4.8
1979-07-18 12:07:44.620 ,6,0,0.,4.8,0.,4.8,0.,4.8,0.,4.8
1979-07-18 12:07:49.420 ,6,0,0.,4.8,0.,4.8,0.,4.8,0.,4.8
1979-07-18 12:07:54.220 ,6,0,0.,4.8,0.,4.8,0.,4.8,0.,4.8
1979-07-18 12:13:35.020 ,0,0,1.,4.8,0.,4.8,0.,4.8,0.,4.8
1979-07-18 12:13:39.820 ,0,0,0.,4.8,0.,4.8,0.,4.8,0.,4.8
1979-07-18 12:13:44.620 ,0,0,1.,4.8,0.,4.8,0.,4.8,0.,4.8
1979-07-18 12:13:49.420 ,0,0,0.,4.8,0.,4.8,0.,4.8,0.,4.8
1979-07-18 12:13:54.220 ,0,0,0.,4.8,0.,4.8,0.,4.8,0.,4.8
1979-07-18 12:13:59.020 ,0,0,0.,4.8,0.,4.8,0.,4.8,0.,4.8
1979-07-18 12:14:03.820 ,0,0,0.,4.8,0.,4.8,0.,4.8,0.,4.8
1979-07-18 12:14:08.620 ,0,0,0.,4.8,0.,4.8,0.,4.8,0.,4.8
1979-07-18 12:14:13.420 ,0,0,1.,4.8,0.,4.8,0.,4.8,0.,4.8
1979-07-18 12:14:18.220 ,0,0,0.,4.8,0.,4.8,0.,4.8,0.,4.8
1979-07-18 12:14:23.020 ,2,0,0.,4.8,0.,4.8,0.,4.8,0.,4.8
1979-07-18 12:14:27.820 ,2,0,1.,4.8,0.,4.8,0.,4.8,0.,4.8
1979-07-18 12:14:32.620 ,2,0,0.,4.8,0.,4.8,0.,4.8,0.,4.8
1979-07-18 12:14:37.420 ,2,0,1.,4.8,0.,4.8,0.,4.8,0.,4.8
1979-07-18 12:14:42.220 ,2,0,0.,4.8,0.,4.8,0.,4.8,0.,4.8
1979-07-18 12:14:47.020 ,2,0,0.,4.8,0.,4.8,0.,4.8,0.,4.8
1979-07-18 12:14:51.820 ,2,0,0.,4.8,0.,4.8,0.,4.8,1.,4.8
1979-07-18 12:14:56.620 ,2,0,0.,4.8,0.,4.8,0.,4.8,0.,4.8
1979-07-18 12:15:01.420 ,2,0,1.,4.8,0.,4.8,0.,4.8,0.,4.8
1979-07-18 12:15:06.220 ,2,0,0.,4.8,0.,4.8,0.,4.8,0.,4.8
1979-07-18 12:15:11.020 ,3,0,0.,4.8,0.,4.8,0.,4.8,0.,4.8
1979-07-18 12:15:15.820 ,3,0,0.,4.8,0.,4.8,0.,4.8,0.,4.8
1979-07-18 12:15:20.620 ,3,0,1.,4.8,0.,4.8,0.,4.8,0.,4.8
1979-07-18 12:15:25.420 ,3,0,1.,4.8,0.,4.8,0.,4.8,0.,4.8
1979-07-18 12:15:30.220 ,3,0,0.,4.8,0.,4.8,0.,4.8,0.,4.8
1979-07-18 12:15:35.020 ,3,0,0.,4.8,0.,4.8,0.,4.8,0.,4.8
1979-07-18 12:15:39.820 ,3,0,1.,4.8,0.,4.8,0.,4.8,0.,4.8
1979-07-18 12:15:44.620 ,3,0,0.,4.8,0.,4.8,0.,4.8,0.,4.8
1979-07-18 12:15:49.420 ,3,0,0.,4.8,0.,4.8,0.,4.8,1.,4.8
1979-07-18 12:15:54.220 ,3,0,0.,4.8,0.,4.8,0.,4.8,0.,4.8
1979-07-18 12:16:47.020 ,0,0,2.,4.8,0.,4.8,0.,4.8,0.,4.8
1979-07-18 12:16:51.820 ,0,0,0.,4.8,0.,4.8,0.,4.8,0.,4.8
1979-07-18 12:16:56.620 ,0,0,0.,4.8,0.,4.8,0.,4.8,0.,4.8
1979-07-18 12:17:01.420 ,0,0,0.,4.8,0.,4.8,0.,4.8,1.,4.8
1979-07-18 12:17:06.220 ,0,0,0.,4.8,0.,4.8,0.,4.8,0.,4.8
1979-07-18 12:17:11.020 ,0,0,0.,4.8,0.,4.8,0.,4.8,0.,4.8
1979-07-18 12:17:15.820 ,0,0,1.,4.8,0.,4.8,0.,4.8,0.,4.8
1979-07-18 12:17:20.620 ,0,0,0.,4.8,0.,4.8,0.,4.8,1.,4.8
1979-07-18 12:17:25.420 ,0,0,0.,4.8,0.,4.8,0.,4.8,0.,4.8
1979-07-18 12:17:30.220 ,0,0,0.,4.8,0.,4.8,0.,4.8,0.,4.8
1979-07-18 12:17:35.020 ,6,0,1.,4.8,0.,4.8,0.,4.8,0.,4.8
1979-07-18 12:17:39.820 ,6,0,1.,4.8,0.,4.8,0.,4.8,0.,4.8
1979-07-18 12:17:44.620 ,6,0,1.,4.8,0.,4.8,0.,4.8,0.,4.8
1979-07-18 12:17:49.420 ,6,0,1.,4.8,0.,4.8,0.,4.8,0.,4.8
1979-07-18 12:17:54.220 ,6,0,0.,4.8,0.,4.8,0.,4.8,0.,4.8
1979-07-18 12:17:59.020 ,6,0,1.,4.8,0.,4.8,0.,4.8,0.,4.8
1979-07-18 12:18:03.820 ,6,0,0.,4.8,0.,4.8,0.,4.8,0.,4.8
1979-07-18 12:18:08.620 ,6,0,0.,4.8,0.,4.8,0.,4.8,0.,4.8
1979-07-18 12:18:13.420 ,6,0,1.,4.8,0.,4.8,0.,4.8,0.,4.8
1979-07-18 12:18:18.220 ,6,0,0.,4.8,0.,4.8,0.,4.8,0.,4.8
1979-07-18 12:18:23.020 ,7,0,2.,4.8,0.,4.8,0.,4.8,0.,4.8
1979-07-18 12:18:27.820 ,7,0,0.,4.8,0.,4.8,0.,4.8,0.,4.8
1979-07-18 12:18:32.620 ,7,0,0.,4.8,0.,4.8,0.,4.8,0.,4.8
1979-07-18 12:18:37.420 ,7,0,0.,4.8,0.,4.8,0.,4.8,0.,4.8
1979-07-18 12:18:42.220 ,7,0,0.,4.8,0.,4.8,0.,4.8,0.,4.8
1979-07-18 12:18:47.020 ,7,0,0.,4.8,0.,4.8,0.,4.8,0.,4.8
1979-07-18 12:18:51.820 ,7,0,0.,4.8,0.,4.8,0.,4.8,0.,4.8
1979-07-18 12:18:56.620 ,7,0,1.,4.8,0.,4.8,0.,4.8,0.,4.8
1979-07-18 12:19:01.420 ,7,0,0.,4.8,0.,4.8,0.,4.8,0.,4.8
1979-07-18 12:19:06.220 ,7,0,1.,4.8,0.,4.8,0.,4.8,0.,4.8
1979-07-18 12:19:11.020 ,3,1,0.,4.8,0.,4.8,0.,4.8,0.,4.8
1979-07-18 12:19:15.820 ,3,1,0.,4.8,0.,4.8,0.,4.8,0.,4.8
1979-07-18 12:19:20.620 ,3,1,0.,4.8,0.,4.8,0.,4.8,0.,4.8
1979-07-18 12:19:25.420 ,3,1,1.,4.8,0.,4.8,0.,4.8,0.,4.8
1979-07-18 12:19:30.220 ,3,1,0.,4.8,0.,4.8,0.,4.8,0.,4.8
1979-07-18 12:19:35.020 ,0,1,0.,4.8,0.,4.8,0.,4.8,1.,4.8
1979-07-18 12:19:39.820 ,0,1,0.,4.8,0.,4.8,0.,4.8,0.,4.8
1979-07-18 12:19:44.620 ,0,1,0.,4.8,0.,4.8,0.,4.8,0.,4.8
1979-07-18 12:19:49.420 ,0,1,0.,4.8,0.,4.8,0.,4.8,0.,4.8
1979-07-18 12:19:54.220 ,0,1,0.,4.8,0.,4.8,0.,4.8,0.,4.8
1979-07-18 12:19:59.020 ,4,1,0.,4.8,0.,4.8,0.,4.8,0.,4.8
1979-07-18 12:20:03.820 ,4,1,0.,4.8,0.,4.8,0.,4.8,0.,4.8
1979-07-18 12:20:08.620 ,4,1,0.,4.8,0.,4.8,0.,4.8,0.,4.8
1979-07-18 12:20:13.420 ,4,1,0.,4.8,0.,4.8,0.,4.8,0.,4.8
1979-07-18 12:20:18.220 ,4,1,0.,4.8,0.,4.8,0.,4.8,0.,4.8
1979-07-18 12:20:23.020 ,7,1,0.,4.8,0.,4.8,0.,4.8,1.,4.8
1979-07-18 12:20:27.820 ,7,1,0.,4.8,0.,4.8,0.,4.8,0.,4.8
1979-07-18 12:20:32.620 ,7,1,0.,4.8,0.,4.8,0.,4.8,0.,4.8
1979-07-18 12:20:37.420 ,7,1,0.,4.8,0.,4.8,0.,4.8,0.,4.8
1979-07-18 12:20:42.220 ,7,1,0.,4.8,0.,4.8,0.,4.8,0.,4.8
1979-07-18 12:20:47.020 ,3,1,0.,4.8,0.,4.8,0.,4.8,0.,4.8
1979-07-18 12:20:51.820 ,3,1,0.,4.8,0.,4.8,0.,4.8,0.,4.8
1979-07-18 12:20:56.620 ,3,1,1.,4.8,0.,4.8,0.,4.8,0.,4.8
1979-07-18 12:21:01.420 ,3,1,0.,4.8,0.,4.8,0.,4.8,0.,4.8
1979-07-18 12:21:06.220 ,3,1,1.,4.8,0.,4.8,0.,4.8,0.,4.8
1979-07-18 12:21:11.020 ,0,1,0.,4.8,0.,4.8,0.,4.8,0.,4.8
1979-07-18 12:21:15.820 ,0,1,0.,4.8,0.,4.8,0.,4.8,0.,4.8
1979-07-18 12:21:20.620 ,0,1,0.,4.8,0.,4.8,0.,4.8,0.,4.8
1979-07-18 12:21:25.420 ,0,1,0.,4.8,0.,4.8,0.,4.8,0.,4.8
1979-07-18 12:21:30.220 ,0,1,1.,4.8,0.,4.8,0.,4.8,0.,4.8
1979-07-18 12:21:35.020 ,4,1,0.,4.8,0.,4.8,0.,4.8,0.,4.8
1979-07-18 12:21:39.820 ,4,1,0.,4.8,0.,4.8,0.,4.8,0.,4.8
1979-07-18 12:21:44.620 ,4,1,0.,4.8,0.,4.8,0.,4.8,0.,4.8
1979-07-18 12:21:49.420 ,4,1,0.,4.8,0.,4.8,0.,4.8,0.,4.8
1979-07-18 12:21:54.220 ,4,1,1.,4.8,0.,4.8,0.,4.8,0.,4.8
1979-07-18 12:21:59.020 ,7,1,0.,4.8,0.,4.8,0.,4.8,0.,4.8
1979-07-18 12:22:03.820 ,7,1,0.,4.8,0.,4.8,0.,4.8,0.,4.8
1979-07-18 12:22:08.620 ,7,1,0.,4.8,0.,4.8,0.,4.8,0.,4.8
1979-07-18 12:22:13.420 ,7,1,0.,4.8,0.,4.8,0.,4.8,1.,4.8
1979-07-18 12:22:18.220 ,7,1,0.,4.8,0.,4.8,0.,4.8,0.,4.8
1979-07-18 12:22:23.020 ,3,1,1.,4.8,0.,4.8,0.,4.8,0.,4.8
1979-07-18 12:22:27.820 ,3,1,0.,4.8,0.,4.8,0.,4.8,0.,4.8
1979-07-18 12:22:32.620 ,3,1,1.,4.8,0.,4.8,0.,4.8,0.,4.8
1979-07-18 12:22:37.420 ,3,1,0.,4.8,0.,4.8,0.,4.8,0.,4.8
1979-07-18 12:22:42.220 ,3,1,0.,4.8,0.,4.8,0.,4.8,0.,4.8
1979-07-18 12:22:47.020 ,0,1,1.,4.8,0.,4.8,0.,4.8,0.,4.8
1979-07-18 12:22:51.820 ,0,1,1.,4.8,0.,4.8,0.,4.8,0.,4.8
1979-07-18 12:22:56.620 ,0,1,0.,4.8,0.,4.8,0.,4.8,0.,4.8
1979-07-18 12:23:01.420 ,0,1,0.,4.8,0.,4.8,0.,4.8,0.,4.8
1979-07-18 12:23:06.220 ,0,1,1.,4.8,0.,4.8,0.,4.8,0.,4.8
1979-07-18 12:23:11.020 ,4,1,0.,4.8,0.,4.8,0.,4.8,0.,4.8
1979-07-18 12:23:15.820 ,4,1,1.,4.8,0.,4.8,0.,4.8,0.,4.8
1979-07-18 12:23:20.620 ,4,1,0.,4.8,0.,4.8,0.,4.8,0.,4.8
1979-07-18 12:23:25.420 ,4,1,2.,4.8,0.,4.8,0.,4.8,1.,4.8
1979-07-18 12:23:30.220 ,4,1,0.,4.8,0.,4.8,0.,4.8,0.,4.8
1979-07-18 12:23:35.020 ,7,1,0.,4.8,0.,4.8,0.,4.8,0.,4.8
1979-07-18 12:23:39.820 ,7,1,1.,4.8,0.,4.8,0.,4.8,0.,4.8
1979-07-18 12:23:44.620 ,7,1,0.,4.8,0.,4.8,0.,4.8,0.,4.8
1979-07-18 12:23:49.420 ,7,1,0.,4.8,0.,4.8,0.,4.8,0.,4.8
1979-07-18 12:23:54.220 ,7,1,0.,4.8,0.,4.8,0.,4.8,0.,4.8
1979-07-18 12:23:59.020 ,3,1,0.,4.8,0.,4.8,0.,4.8,0.,4.8
1979-07-18 12:24:03.820 ,3,1,0.,4.8,0.,4.8,0.,4.8,0.,4.8
1979-07-18 12:24:08.620 ,3,1,0.,4.8,0.,4.8,0.,4.8,0.,4.8
1979-07-18 12:24:13.420 ,3,1,2.,4.8,0.,4.8,0.,4.8,0.,4.8
1979-07-18 12:24:18.220 ,3,1,0.,4.8,0.,4.8,0.,4.8,0.,4.8
1979-07-18 12:24:23.020 ,0,1,0.,4.8,0.,4.8,0.,4.8,0.,4.8
1979-07-18 12:24:27.820 ,0,1,1.,4.8,0.,4.8,0.,4.8,0.,4.8
1979-07-18 12:24:32.620 ,0,1,0.,4.8,0.,4.8,0.,4.8,0.,4.8
1979-07-18 12:24:37.420 ,0,1,0.,4.8,0.,4.8,0.,4.8,0.,4.8
1979-07-18 12:24:42.220 ,0,1,0.,4.8,0.,4.8,0.,4.8,0.,4.8
1979-07-18 12:24:47.020 ,4,1,1.,4.8,0.,4.8,0.,4.8,0.,4.8
1979-07-18 12:24:51.820 ,4,1,0.,4.8,0.,4.8,0.,4.8,0.,4.8
1979-07-18 12:24:56.620 ,4,1,0.,4.8,0.,4.8,0.,4.8,0.,4.8
1979-07-18 12:25:01.420 ,4,1,1.,4.8,0.,4.8,0.,4.8,0.,4.8
1979-07-18 12:25:06.220 ,4,1,0.,4.8,0.,4.8,0.,4.8,0.,4.8
1979-07-18 12:25:11.020 ,7,1,3.,4.8,0.,4.8,0.,4.8,0.,4.8
1979-07-18 12:25:15.820 ,7,1,0.,4.8,0.,4.8,0.,4.8,0.,4.8
1979-07-18 12:25:20.620 ,7,1,0.,4.8,0.,4.8,0.,4.8,0.,4.8
1979-07-18 12:25:25.420 ,7,1,0.,4.8,0.,4.8,0.,4.8,0.,4.8
1979-07-18 12:25:30.220 ,7,1,0.,4.8,0.,4.8,0.,4.8,0.,4.8
1979-07-18 12:25:35.020 ,3,1,0.,4.8,0.,4.8,0.,4.8,0.,4.8
1979-07-18 12:25:39.820 ,3,1,0.,4.8,0.,4.8,0.,4.8,0.,4.8
1979-07-18 12:25:44.620 ,3,1,0.,4.8,0.,4.8,0.,4.8,0.,4.8
1979-07-18 12:25:49.420 ,3,1,0.,4.8,0.,4.8,0.,4.8,0.,4.8
1979-07-18 12:25:54.220 ,3,1,0.,4.8,0.,4.8,0.,4.8,1.,4.8
1979-07-18 12:25:59.020 ,0,1,1.,4.8,0.,4.8,0.,4.8,0.,4.8
1979-07-18 12:26:03.820 ,0,1,0.,4.8,0.,4.8,0.,4.8,1.,4.8
1979-07-18 12:26:08.620 ,0,1,0.,4.8,0.,4.8,0.,4.8,0.,4.8
1979-07-18 12:26:13.420 ,0,1,0.,4.8,0.,4.8,0.,4.8,0.,4.8
1979-07-18 12:26:18.220 ,0,1,1.,4.8,0.,4.8,0.,4.8,0.,4.8
1979-07-18 12:26:23.020 ,4,1,0.,4.8,0.,4.8,0.,4.8,1.,4.8
1979-07-18 12:26:27.820 ,4,1,0.,4.8,0.,4.8,0.,4.8,0.,4.8
1979-07-18 12:26:32.620 ,4,1,0.,4.8,0.,4.8,0.,4.8,0.,4.8
1979-07-18 12:26:37.420 ,4,1,0.,4.8,0.,4.8,0.,4.8,0.,4.8
1979-07-18 12:26:42.220 ,4,1,1.,4.8,0.,4.8,0.,4.8,1.,4.8
1979-07-18 12:26:47.020 ,7,1,0.,4.8,0.,4.8,0.,4.8,0.,4.8
1979-07-18 12:26:51.820 ,7,1,0.,4.8,0.,4.8,0.,4.8,0.,4.8
1979-07-18 12:26:56.620 ,7,1,1.,4.8,0.,4.8,0.,4.8,0.,4.8
1979-07-18 12:27:01.420 ,7,1,0.,4.8,0.,4.8,0.,4.8,1.,4.8
1979-07-18 12:27:06.220 ,7,1,0.,4.8,0.,4.8,0.,4.8,0.,4.8
1979-07-18 12:27:11.020 ,3,1,0.,4.8,0.,4.8,0.,4.8,0.,4.8
1979-07-18 12:27:15.820 ,3,1,0.,4.8,0.,4.8,0.,4.8,0.,4.8
1979-07-18 12:27:20.620 ,3,1,0.,4.8,0.,4.8,0.,4.8,0.,4.8
1979-07-18 12:27:25.420 ,3,1,1.,4.8,0.,4.8,0.,4.8,0.,4.8
1979-07-18 12:27:30.220 ,3,1,0.,4.8,0.,4.8,0.,4.8,0.,4.8
1979-07-18 12:27:35.020 ,0,1,0.,4.8,0.,4.8,0.,4.8,0.,4.8
1979-07-18 12:27:39.820 ,0,1,0.,4.8,0.,4.8,0.,4.8,0.,4.8
1979-07-18 12:27:44.620 ,0,1,0.,4.8,0.,4.8,0.,4.8,0.,4.8
1979-07-18 12:27:49.420 ,0,1,0.,4.8,0.,4.8,0.,4.8,0.,4.8
1979-07-18 12:27:54.220 ,0,1,1.,4.8,0.,4.8,0.,4.8,0.,4.8
1979-07-18 12:27:59.020 ,4,1,0.,4.8,0.,4.8,0.,4.8,0.,4.8
1979-07-18 12:28:03.820 ,4,1,0.,4.8,0.,4.8,0.,4.8,0.,4.8
1979-07-18 12:28:08.620 ,4,1,0.,4.8,0.,4.8,0.,4.8,0.,4.8
1979-07-18 12:28:13.420 ,4,1,0.,4.8,0.,4.8,0.,4.8,0.,4.8
1979-07-18 12:28:18.220 ,4,1,2.,4.8,0.,4.8,0.,4.8,0.,4.8
1979-07-18 12:28:23.020 ,7,1,0.,4.8,0.,4.8,0.,4.8,0.,4.8
1979-07-18 12:28:27.820 ,7,1,0.,4.8,0.,4.8,0.,4.8,0.,4.8
1979-07-18 12:28:32.620 ,7,1,0.,4.8,0.,4.8,0.,4.8,0.,4.8
1979-07-18 12:28:37.420 ,7,1,3.,4.8,0.,4.8,0.,4.8,0.,4.8
1979-07-18 12:28:42.220 ,7,1,0.,4.8,0.,4.8,0.,4.8,0.,4.8
1979-07-18 12:28:47.020 ,3,1,0.,4.8,0.,4.8,0.,4.8,0.,4.8
1979-07-18 12:28:51.820 ,3,1,0.,4.8,0.,4.8,0.,4.8,0.,4.8
1979-07-18 12:28:56.620 ,3,1,0.,4.8,0.,4.8,0.,4.8,0.,4.8
1979-07-18 12:29:01.420 ,3,1,1.,4.8,0.,4.8,0.,4.8,0.,4.8
1979-07-18 12:29:06.220 ,3,1,0.,4.8,0.,4.8,0.,4.8,0.,4.8
1979-07-18 12:29:11.020 ,0,1,0.,4.8,0.,4.8,0.,4.8,0.,4.8
1979-07-18 12:29:15.820 ,0,1,0.,4.8,0.,4.8,0.,4.8,0.,4.8
1979-07-18 12:29:20.620 ,0,1,0.,4.8,0.,4.8,0.,4.8,0.,4.8
1979-07-18 12:29:25.420 ,0,1,0.,4.8,0.,4.8,0.,4.8,0.,4.8
1979-07-18 12:29:30.220 ,0,1,0.,4.8,0.,4.8,0.,4.8,0.,4.8
1979-07-18 12:29:35.020 ,0,0,0.,4.8,0.,4.8,0.,4.8,0.,4.8
1979-07-18 12:29:39.820 ,0,0,0.,4.8,0.,4.8,0.,4.8,0.,4.8
1979-07-18 12:29:44.620 ,0,0,1.,4.8,0.,4.8,0.,4.8,0.,4.8
1979-07-18 12:29:49.420 ,0,0,0.,4.8,0.,4.8,0.,4.8,0.,4.8
1979-07-18 12:29:54.220 ,0,0,0.,4.8,0.,4.8,0.,4.8,0.,4.8
1979-07-18 12:29:59.020 ,0,0,0.,4.8,0.,4.8,0.,4.8,0.,4.8
1979-07-18 12:30:03.820 ,0,0,0.,4.8,0.,4.8,0.,4.8,0.,4.8
1979-07-18 12:30:08.620 ,0,0,0.,4.8,0.,4.8,0.,4.8,0.,4.8
1979-07-18 12:30:13.420 ,0,0,0.,4.8,0.,4.8,0.,4.8,0.,4.8
1979-07-18 12:30:18.220 ,0,0,0.,4.8,0.,4.8,0.,4.8,0.,4.8
1979-07-18 12:30:23.020 ,5,0,0.,4.8,0.,4.8,0.,4.8,0.,4.8
1979-07-18 12:30:27.820 ,5,0,0.,4.8,0.,4.8,0.,4.8,0.,4.8
1979-07-18 12:30:32.620 ,5,0,0.,4.8,0.,4.8,0.,4.8,0.,4.8
1979-07-18 12:30:37.420 ,5,0,2.,4.8,0.,4.8,0.,4.8,0.,4.8
1979-07-18 12:30:42.220 ,5,0,0.,4.8,0.,4.8,0.,4.8,0.,4.8
1979-07-18 12:30:47.020 ,5,0,0.,4.8,0.,4.8,0.,4.8,0.,4.8
1979-07-18 12:30:51.820 ,5,0,0.,4.8,0.,4.8,0.,4.8,0.,4.8
1979-07-18 12:30:56.620 ,5,0,0.,4.8,0.,4.8,0.,4.8,0.,4.8
1979-07-18 12:31:01.420 ,5,0,0.,4.8,0.,4.8,0.,4.8,0.,4.8
1979-07-18 12:31:06.220 ,5,0,1.,4.8,0.,4.8,0.,4.8,0.,4.8
1979-07-18 12:31:11.020 ,4,0,0.,4.8,0.,4.8,0.,4.8,0.,4.8
1979-07-18 12:31:15.820 ,4,0,0.,4.8,0.,4.8,0.,4.8,0.,4.8
1979-07-18 12:31:20.620 ,4,0,0.,4.8,0.,4.8,0.,4.8,0.,4.8
1979-07-18 12:31:25.420 ,4,0,0.,4.8,0.,4.8,0.,4.8,0.,4.8
1979-07-18 12:31:30.220 ,4,0,0.,4.8,0.,4.8,0.,4.8,0.,4.8
1979-07-18 12:31:35.020 ,4,0,1.,4.8,0.,4.8,0.,4.8,0.,4.8
1979-07-18 12:31:39.820 ,4,0,0.,4.8,0.,4.8,0.,4.8,0.,4.8
1979-07-18 12:31:44.620 ,4,0,0.,4.8,0.,4.8,0.,4.8,0.,4.8
1979-07-18 12:31:49.420 ,4,0,0.,4.8,0.,4.8,0.,4.8,0.,4.8
1979-07-18 12:31:54.220 ,4,0,0.,4.8,0.,4.8,0.,4.8,0.,4.8
1979-07-18 12:31:59.020 ,3,0,0.,4.8,0.,4.8,0.,4.8,0.,4.8
1979-07-18 12:32:03.820 ,3,0,0.,4.8,0.,4.8,0.,4.8,0.,4.8
1979-07-18 12:32:08.620 ,3,0,1.,4.8,0.,4.8,0.,4.8,0.,4.8
1979-07-18 12:32:13.420 ,3,0,0.,4.8,0.,4.8,0.,4.8,0.,4.8
1979-07-18 12:32:18.220 ,3,0,0.,4.8,0.,4.8,0.,4.8,0.,4.8
1979-07-18 12:32:23.020 ,3,0,0.,4.8,0.,4.8,0.,4.8,1.,4.8
1979-07-18 12:32:27.820 ,3,0,0.,4.8,0.,4.8,0.,4.8,0.,4.8
1979-07-18 12:32:32.620 ,3,0,1.,4.8,0.,4.8,0.,4.8,0.,4.8
1979-07-18 12:32:37.420 ,3,0,0.,4.8,0.,4.8,0.,4.8,0.,4.8
1979-07-18 12:32:42.220 ,3,0,1.,4.8,0.,4.8,0.,4.8,0.,4.8
1979-07-18 12:32:47.020 ,2,0,0.,4.8,0.,4.8,0.,4.8,0.,4.8
1979-07-18 12:32:51.820 ,2,0,0.,4.8,0.,4.8,0.,4.8,0.,4.8
1979-07-18 12:32:56.620 ,2,0,0.,4.8,0.,4.8,0.,4.8,0.,4.8
1979-07-18 12:33:01.420 ,2,0,0.,4.8,0.,4.8,0.,4.8,0.,4.8
1979-07-18 12:33:06.220 ,2,0,0.,4.8,0.,4.8,0.,4.8,0.,4.8
1979-07-18 12:33:11.020 ,2,0,0.,4.8,0.,4.8,0.,4.8,0.,4.8
1979-07-18 12:33:15.820 ,2,0,0.,4.8,0.,4.8,0.,4.8,0.,4.8
1979-07-18 12:33:20.620 ,2,0,0.,4.8,0.,4.8,0.,4.8,0.,4.8
1979-07-18 12:33:25.420 ,2,0,1.,4.8,0.,4.8,0.,4.8,0.,4.8
1979-07-18 12:33:30.220 ,2,0,0.,4.8,0.,4.8,0.,4.8,1.,4.8
1979-07-18 12:33:35.020 ,1,0,0.,4.8,0.,4.8,0.,4.8,0.,4.8
1979-07-18 12:33:39.820 ,1,0,0.,4.8,0.,4.8,0.,4.8,0.,4.8
1979-07-18 12:33:44.620 ,1,0,0.,4.8,0.,4.8,0.,4.8,0.,4.8
1979-07-18 12:33:49.420 ,1,0,0.,4.8,0.,4.8,0.,4.8,0.,4.8
1979-07-18 12:33:54.220 ,1,0,0.,4.8,0.,4.8,0.,4.8,0.,4.8
1979-07-18 12:33:59.020 ,1,0,0.,4.8,0.,4.8,0.,4.8,0.,4.8
1979-07-18 12:34:03.820 ,1,0,1.,4.8,0.,4.8,0.,4.8,0.,4.8
1979-07-18 12:34:08.620 ,1,0,0.,4.8,0.,4.8,0.,4.8,0.,4.8
1979-07-18 12:34:13.420 ,1,0,0.,4.8,0.,4.8,0.,4.8,0.,4.8
1979-07-18 12:34:18.220 ,1,0,1.,4.8,0.,4.8,0.,4.8,0.,4.8
1979-07-18 12:34:23.020 ,0,0,0.,4.8,0.,4.8,0.,4.8,0.,4.8
1979-07-18 12:34:27.820 ,0,0,0.,4.8,0.,4.8,0.,4.8,0.,4.8
1979-07-18 12:34:32.620 ,0,0,0.,4.8,0.,4.8,0.,4.8,0.,4.8
1979-07-18 12:34:37.420 ,0,0,0.,4.8,0.,4.8,0.,4.8,0.,4.8
1979-07-18 12:34:42.220 ,0,0,0.,4.8,0.,4.8,0.,4.8,0.,4.8
1979-07-18 12:34:47.020 ,0,0,0.,4.8,0.,4.8,0.,4.8,0.,4.8
1979-07-18 12:34:51.820 ,0,0,0.,4.8,0.,4.8,0.,4.8,0.,4.8
1979-07-18 12:34:56.620 ,0,0,1.,4.8,0.,4.8,0.,4.8,0.,4.8
1979-07-18 12:35:01.420 ,0,0,0.,4.8,0.,4.8,0.,4.8,0.,4.8
1979-07-18 12:35:06.220 ,0,0,0.,4.8,0.,4.8,0.,4.8,0.,4.8
1979-07-18 12:35:11.020 ,0,0,0.,4.8,0.,4.8,0.,4.8,0.,4.8
1979-07-18 12:35:15.820 ,0,0,0.,4.8,0.,4.8,0.,4.8,0.,4.8
1979-07-18 12:35:20.620 ,0,0,1.,4.8,0.,4.8,0.,4.8,0.,4.8
1979-07-18 12:35:25.420 ,0,0,0.,4.8,0.,4.8,0.,4.8,0.,4.8
1979-07-18 12:35:30.220 ,0,0,0.,4.8,0.,4.8,0.,4.8,0.,4.8
1979-07-18 12:35:35.020 ,0,0,0.,4.8,0.,4.8,0.,4.8,0.,4.8
1979-07-18 12:35:39.820 ,0,0,1.,4.8,0.,4.8,0.,4.8,0.,4.8
1979-07-18 12:35:44.620 ,0,0,0.,4.8,0.,4.8,0.,4.8,0.,4.8
1979-07-18 12:35:49.420 ,0,0,0.,4.8,0.,4.8,0.,4.8,0.,4.8
1979-07-18 12:35:54.220 ,0,0,0.,4.8,0.,4.8,0.,4.8,0.,4.8
1979-07-18 12:36:47.020 ,0,0,0.,4.8,0.,4.8,0.,4.8,0.,4.8
1979-07-18 12:36:51.820 ,0,0,0.,4.8,0.,4.8,0.,4.8,0.,4.8
1979-07-18 12:36:56.620 ,0,0,0.,4.8,0.,4.8,0.,4.8,0.,4.8
1979-07-18 12:37:01.420 ,0,0,0.,4.8,0.,4.8,0.,4.8,0.,4.8
1979-07-18 12:37:06.220 ,0,0,0.,4.8,0.,4.8,0.,4.8,0.,4.8
1979-07-18 12:37:11.020 ,0,0,0.,4.8,0.,4.8,0.,4.8,0.,4.8
1979-07-18 12:37:15.820 ,0,0,0.,4.8,0.,4.8,0.,4.8,0.,4.8
1979-07-18 12:37:20.620 ,0,0,1.,4.8,0.,4.8,0.,4.8,0.,4.8
1979-07-18 12:37:25.420 ,0,0,1.,4.8,0.,4.8,0.,4.8,0.,4.8
1979-07-18 12:37:30.220 ,0,0,0.,4.8,0.,4.8,0.,4.8,0.,4.8
1979-07-18 12:37:35.020 ,3,0,0.,4.8,0.,4.8,0.,4.8,0.,4.8
1979-07-18 12:37:39.820 ,3,0,0.,4.8,0.,4.8,0.,4.8,0.,4.8
1979-07-18 12:37:44.620 ,3,0,0.,4.8,0.,4.8,0.,4.8,1.,4.8
1979-07-18 12:37:49.420 ,3,0,0.,4.8,0.,4.8,0.,4.8,0.,4.8
1979-07-18 12:37:54.220 ,3,0,0.,4.8,0.,4.8,0.,4.8,0.,4.8
1979-07-18 12:37:59.020 ,3,0,1.,4.8,0.,4.8,0.,4.8,0.,4.8
1979-07-18 12:38:03.820 ,3,0,1.,4.8,0.,4.8,0.,4.8,2.,4.8
1979-07-18 12:38:08.620 ,3,0,0.,4.8,0.,4.8,0.,4.8,0.,4.8
1979-07-18 12:38:13.420 ,3,0,0.,4.8,0.,4.8,0.,4.8,0.,4.8
1979-07-18 12:38:18.220 ,3,0,0.,4.8,0.,4.8,0.,4.8,1.,4.8
1979-07-18 12:38:23.020 ,4,0,0.,4.8,0.,4.8,0.,4.8,0.,4.8
1979-07-18 12:38:27.820 ,4,0,0.,4.8,0.,4.8,0.,4.8,0.,4.8
1979-07-18 12:38:32.620 ,4,0,0.,4.8,0.,4.8,0.,4.8,0.,4.8
1979-07-18 12:38:37.420 ,4,0,0.,4.8,0.,4.8,0.,4.8,0.,4.8
1979-07-18 12:38:42.220 ,4,0,0.,4.8,0.,4.8,0.,4.8,0.,4.8
1979-07-18 12:38:47.020 ,4,0,0.,4.8,0.,4.8,0.,4.8,0.,4.8
1979-07-18 12:38:51.820 ,4,0,0.,4.8,0.,4.8,0.,4.8,0.,4.8
1979-07-18 12:38:56.620 ,4,0,0.,4.8,0.,4.8,0.,4.8,0.,4.8
1979-07-18 12:39:01.420 ,4,0,0.,4.8,0.,4.8,0.,4.8,0.,4.8
1979-07-18 12:39:06.220 ,4,0,0.,4.8,0.,4.8,0.,4.8,0.,4.8
1979-07-18 12:39:11.020 ,5,0,0.,4.8,0.,4.8,0.,4.8,0.,4.8
1979-07-18 12:39:15.820 ,5,0,0.,4.8,0.,4.8,0.,4.8,0.,4.8
1979-07-18 12:39:20.620 ,5,0,0.,4.8,0.,4.8,0.,4.8,0.,4.8
1979-07-18 12:39:25.420 ,5,0,0.,4.8,0.,4.8,0.,4.8,0.,4.8
1979-07-18 12:39:30.220 ,5,0,0.,4.8,0.,4.8,0.,4.8,0.,4.8
1979-07-18 12:39:35.020 ,5,0,0.,4.8,0.,4.8,0.,4.8,1.,4.8
1979-07-18 12:39:39.820 ,5,0,0.,4.8,0.,4.8,0.,4.8,1.,4.8
1979-07-18 12:39:44.620 ,5,0,0.,4.8,0.,4.8,0.,4.8,0.,4.8
1979-07-18 12:39:49.420 ,5,0,0.,4.8,0.,4.8,0.,4.8,0.,4.8
1979-07-18 12:39:54.220 ,5,0,0.,4.8,0.,4.8,0.,4.8,0.,4.8
1979-07-18 12:39:59.020 ,6,0,1.,4.8,0.,4.8,0.,4.8,0.,4.8
1979-07-18 12:40:03.820 ,6,0,1.,4.8,0.,4.8,0.,4.8,0.,4.8
1979-07-18 12:40:08.620 ,6,0,0.,4.8,0.,4.8,0.,4.8,0.,4.8
1979-07-18 12:40:13.420 ,6,0,0.,4.8,0.,4.8,0.,4.8,0.,4.8
1979-07-18 12:40:18.220 ,6,0,1.,4.8,0.,4.8,0.,4.8,0.,4.8
1979-07-18 12:40:23.020 ,6,0,0.,4.8,0.,4.8,0.,4.8,0.,4.8
1979-07-18 12:40:27.820 ,6,0,0.,4.8,0.,4.8,0.,4.8,0.,4.8